Location: Comstock Ranch
(38.0499°N, 120.2627°W)
Time: 20:20:09
(UTC+00:00)

Cosmos 968 Rocket - Pass Details

Date: 08 September 2024
Orbit: 738 x 766 km, 74.0° (Epoch: 11 October)

Event Time Altitude Azimuth Distance (km) Brightness Sun altitude
Rises 13:02:15 0° 184° (S) 3,210 6.6 -7.6°
Reaches altitude 10° 13:04:39 10° 179° (S) 2,285 5.9 -7.2°
Maximum altitude 13:09:41 52° 104° (ESE) 934 4.5 -6.2°
Drops below altitude 10° 13:14:41 10° 28° (NNE) 2,282 6.6 -5.2°
Sets 13:17:06 0° 24° (NNE) 3,206 7.3 -4.8°
